Location: Unspecified
(52.4292°N, 19.3359°E)
Time: 01:01:11
(UTC+02:00)

SR - Pass Details

Date: 28 May 2024
Orbit: 580 x 858 km, 66.7° (Epoch: 12 June)

Event Time Altitude Azimuth Distance (km) Brightness Sun altitude
Rises 15:39:47 0° 160° (SSE) 3,207 ? 43.9°
Reaches altitude 10° 15:43:29 10° 134° (SE) 2,221 ? 43.4°
Maximum altitude 15:45:46 13° 107° (ESE) 1,974 ? 43.0°
Drops below altitude 10° 15:47:59 10° 80° (E) 2,144 ? 42.7°
Sets 15:51:25 0° 53° (NE) 2,999 ? 42.2°
